Flag for Germany Weather past 2 weeks in Weißenfels, Saxony-Anhalt, Germany

Now
54 °F

Overcast.


Feels Like: 53 °F
Forecast: 45 / 59 °F
Wind: 5 mph from Southwest

Location: Leipzig-Schkeuditz

Current Time: Oct 25, 2014 at 5:21:57 PM

Latest Report: Oct 25, 2014 at 5:00 PM


Visibility: 19 mi

Pressure: 30.14 "Hg

Humidity: 74%

Dew point: 46 °F

Location of WeißenfelsLocation

Historic Weather in Weißenfels — Graph

°F

Weißenfels temperature yesterday

Maximum temperature yesterday: 57 °F (at 2:00 PM)
Minimum temperature yesterday: 44 °F (at 10:00 PM)
Average temperature yesterday: 49 °F

Past Weeks' High & Low Weather Summary

 TemperatureHumidityPressure
High72 °F (Oct 19, 3:00 PM)97% (Oct 12, 2:00 AM)30.25 "Hg (Oct 12, 2:00 AM)
Low42 °F (Oct 25, 12:00 AM)49% (Oct 15, 4:00 PM)29.47 "Hg (Oct 21, 9:00 PM)
Average55 °F86%29.93 "Hg
* Reported Oct 10 4:00 PM — Oct 25 4:00 PM, Weißenfels, Weather by CustomWeather, © 2014

Note: Actual official high and low records may vary slightly from our data, if they occured in-between our weather recording intervals... More about our weather records

Advertising

Weißenfels weather history for previous 24 hours

 ConditionsComfort  
Time TempWeatherWind HumidityBarometerVisibility
4:00 PM
Oct 25
55 °FOvercast.5 mph72%30.13 "Hg16 mi
3:00 PM55 °FOvercast.3 mph72%30.12 "Hg16 mi
2:00 PM54 °FOvercast.6 mph73%30.12 "Hg16 mi
1:00 PM54 °FOvercast.5 mph73%30.12 "Hg12 mi
12:00 PM52 °FOvercast.5 mph81%30.13 "Hg12 mi
11:00 AM50 °FOvercast.5 mph83%30.13 "Hg11 mi
10:00 AM47 °FOvercast.6 mph88%30.13 "Hg11 mi
9:00 AM45 °FOvercast.5 mph93%30.13 "Hg9 mi
8:00 AM44 °FOvercast.5 mph93%30.11 "Hg9 mi
7:00 AM43 °FPassing clouds.3 mph94%30.12 "Hg12 mi
6:00 AM44 °FPassing clouds.3 mph94%30.13 "Hg9 mi
4:00 AM43 °FPassing clouds.5 mph97%30.14 "Hg12 mi
3:00 AM43 °FPassing clouds.5 mph97%30.15 "Hg12 mi
2:00 AM43 °FPassing clouds.5 mph97%30.15 "Hg12 mi
1:00 AM43 °FPassing clouds.5 mph97%30.16 "Hg12 mi
12:00 AM42 °FPassing clouds.3 mph96%30.17 "Hg7 mi
11:00 PM
Oct 24
44 °FPassing clouds.5 mph95%30.17 "Hg6 mi
10:00 PM44 °FPassing clouds.5 mph95%30.17 "Hg6 mi
9:00 PM45 °FPassing clouds.5 mph94%30.17 "Hg6 mi
8:00 PM46 °FPassing clouds.6 mph93%30.18 "Hg6 mi
7:00 PM47 °FPassing clouds.5 mph94%30.18 "Hg5 mi
6:00 PM51 °FPassing clouds.5 mph88%30.18 "Hg12 mi
Weather by CustomWeather, © 2014

See weather overviewHow to use our weather pages